Language: 


Des rapports , des résumés tant et plus, au choix de chacun....


Données Historiques de Météogheer
Journalier Rapport pour Juillet 19, 2017 Unitée:  Métrique    Impériale   Les deux
Suivant Jour »
Journalier Hebdomadaire Mensuel Annuel Sur mesure
  Max: Min: Moyenne:
Température: 33.6 °C 19.2 °C 25.1 °C
Point de rosée: 22.0 °C 14.0 °C 17.4 °C
Humidité: 88% 34% 64%
Vent: 30.2km/h 0.0km/h 7.1km/h
Rafales: 34.6km/h - -
Vent- - South
Pression: 1011.1 hPa 1006.0 hPa -
Pluie: 0.0 mm    
Historical Graphs
 
 
Données tabulaires pour Juillet 19, 2017
Heure Température Point de rosée Pression Vent Vent Rafales Humidité Pluie Taux (Horaire) Conditions
00:00 23.4 °C 14.0 °C 1011.1 hPa East 7.9 km/h 13.0 km/h 56% 0.0 mm
00:05 23.4 °C 14.0 °C 1011.1 hPa ENE 9.0 km/h 13.0 km/h 57% 0.0 mm
00:10 23.4 °C 14.0 °C 1011.1 hPa ENE 10.1 km/h 10.1 km/h 57% 0.0 mm
00:15 23.3 °C 14.0 °C 1011.1 hPa ENE 10.1 km/h 10.1 km/h 56% 0.0 mm
00:20 23.2 °C 14.0 °C 1011.1 hPa SE 10.5 km/h 10.5 km/h 57% 0.0 mm
00:25 23.1 °C 14.0 °C 1010.0 hPa Calm   10.5 km/h 57% 0.0 mm
00:30 22.9 °C 14.0 °C 1010.0 hPa ENE 5.8 km/h 11.9 km/h 58% 0.0 mm
00:35 22.8 °C 14.0 °C 1010.0 hPa East 3.2 km/h 11.9 km/h 58% 0.0 mm
00:40 22.7 °C 14.0 °C 1010.0 hPa ENE 7.9 km/h 7.9 km/h 58% 0.0 mm
00:45 22.5 °C 14.0 °C 1010.0 hPa East 9.0 km/h 9.0 km/h 59% 0.0 mm
00:50 22.4 °C 14.0 °C 1010.0 hPa ENE 2.6 km/h 9.0 km/h 59% 0.0 mm
00:55 22.3 °C 14.0 °C 1010.0 hPa ENE 4.3 km/h 9.7 km/h 59% 0.0 mm
01:00 22.2 °C 14.0 °C 1010.0 hPa NE 6.4 km/h 9.7 km/h 60% 0.0 mm
01:05 22.2 °C 14.0 °C 1010.0 hPa NE 6.1 km/h 6.9 km/h 60% 0.0 mm
01:10 22.1 °C 14.0 °C 1009.0 hPa NE 6.1 km/h 6.9 km/h 60% 0.0 mm
01:15 22.0 °C 14.0 °C 1009.0 hPa ENE 5.5 km/h 6.1 km/h 60% 0.0 mm
01:21 21.8 °C 14.0 °C 1009.0 hPa NE 5.0 km/h 6.1 km/h 61% 0.0 mm
01:26 21.8 °C 14.0 °C 1009.0 hPa ENE 10.1 km/h 10.1 km/h 62% 0.0 mm
01:31 21.6 °C 14.0 °C 1009.0 hPa ENE 8.7 km/h 10.1 km/h 62% 0.0 mm
01:36 21.6 °C 14.0 °C 1009.0 hPa NE 10.1 km/h 10.1 km/h 62% 0.0 mm
01:41 21.5 °C 14.0 °C 1009.0 hPa NE 9.7 km/h 10.1 km/h 63% 0.0 mm
01:46 21.4 °C 14.0 °C 1009.0 hPa ENE 7.2 km/h 10.1 km/h 63% 0.0 mm
01:51 21.4 °C 14.0 °C 1009.0 hPa ENE 7.2 km/h 9.7 km/h 63% 0.0 mm
01:56 21.4 °C 14.0 °C 1008.0 hPa Calm   7.2 km/h 64% 0.0 mm
02:01 21.3 °C 14.0 °C 1008.0 hPa ENE 3.2 km/h 7.2 km/h 64% 0.0 mm
02:06 21.3 °C 14.0 °C 1008.0 hPa East 4.0 km/h 5.5 km/h 64% 0.0 mm
02:11 21.2 °C 14.0 °C 1009.0 hPa NE 2.6 km/h 5.5 km/h 64% 0.0 mm
02:16 21.2 °C 15.0 °C 1009.0 hPa NE 8.7 km/h 8.7 km/h 65% 0.0 mm
02:21 21.1 °C 14.0 °C 1009.0 hPa ENE 7.9 km/h 9.0 km/h 65% 0.0 mm
02:26 21.1 °C 14.0 °C 1009.0 hPa NE 5.8 km/h 9.7 km/h 65% 0.0 mm
02:31 21.1 °C 14.0 °C 1009.0 hPa Calm   9.7 km/h 66% 0.0 mm
02:36 21.0 °C 14.0 °C 1009.0 hPa ENE 1.4 km/h 5.8 km/h 66% 0.0 mm
02:41 21.0 °C 14.0 °C 1008.0 hPa Calm   6.1 km/h 66% 0.0 mm
02:46 21.0 °C 14.0 °C 1008.0 hPa East 2.6 km/h 6.1 km/h 66% 0.0 mm
02:51 20.9 °C 15.0 °C 1008.0 hPa ENE 3.5 km/h 4.7 km/h 67% 0.0 mm
02:57 20.8 °C 15.0 °C 1008.0 hPa East 4.3 km/h 4.7 km/h 68% 0.0 mm
03:02 20.7 °C 15.0 °C 1008.0 hPa East 6.9 km/h 6.9 km/h 68% 0.0 mm
03:07 20.6 °C 15.0 °C 1008.0 hPa Calm   9.0 km/h 68% 0.0 mm
03:12 20.6 °C 15.0 °C 1009.0 hPa East 6.9 km/h 9.0 km/h 69% 0.0 mm
03:17 20.5 °C 15.0 °C 1009.0 hPa Calm   6.9 km/h 69% 0.0 mm
03:22 20.5 °C 15.0 °C 1009.0 hPa Calm   2.1 km/h 70% 0.0 mm
03:27 20.5 °C 15.0 °C 1008.0 hPa ENE 5.5 km/h 5.5 km/h 70% 0.0 mm
03:32 20.5 °C 15.0 °C 1008.0 hPa ESE 5.5 km/h 5.5 km/h 70% 0.0 mm
03:37 20.4 °C 15.0 °C 1008.0 hPa Calm   5.5 km/h 70% 0.0 mm
03:42 20.5 °C 15.0 °C 1008.0 hPa Calm   5.5 km/h 71% 0.0 mm
03:47 20.5 °C 15.0 °C 1008.0 hPa Calm   6.1 km/h 71% 0.0 mm
03:52 20.6 °C 15.0 °C 1008.0 hPa ESE 1.4 km/h 6.1 km/h 71% 0.0 mm
03:57 20.6 °C 15.0 °C 1007.0 hPa Calm   5.5 km/h 71% 0.0 mm
04:02 20.6 °C 16.0 °C 1007.0 hPa Calm   4.3 km/h 72% 0.0 mm
04:07 20.5 °C 15.0 °C 1007.0 hPa Calm   4.3 km/h 71% 0.0 mm
04:12 20.4 °C 15.0 °C 1007.0 hPa Calm   4.7 km/h 72% 0.0 mm
04:17 20.4 °C 15.0 °C 1007.0 hPa Calm   5.5 km/h 72% 0.0 mm
04:22 20.4 °C 15.0 °C 1007.0 hPa Calm   5.5 km/h 73% 0.0 mm
04:27 20.4 °C 15.0 °C 1007.0 hPa Calm     73% 0.0 mm
04:33 20.4 °C 15.0 °C 1007.0 hPa Calm     73% 0.0 mm
04:38 20.2 °C 16.0 °C 1007.0 hPa Calm   5.8 km/h 74% 0.0 mm
04:43 20.3 °C 16.0 °C 1006.0 hPa Calm   5.8 km/h 75% 0.0 mm
04:48 20.4 °C 16.0 °C 1006.0 hPa Calm     75% 0.0 mm
04:53 20.5 °C 17.0 °C 1006.0 hPa ESE 5.8 km/h 10.5 km/h 77% 0.0 mm
04:58 20.7 °C 17.0 °C 1007.0 hPa SE 6.1 km/h 10.5 km/h 77% 0.0 mm
05:03 20.9 °C 17.0 °C 1007.0 hPa Calm   6.9 km/h 77% 0.0 mm
05:08 20.9 °C 17.0 °C 1007.0 hPa Calm   6.9 km/h 77% 0.0 mm
05:13 20.9 °C 17.0 °C 1006.0 hPa ESE 3.5 km/h 3.5 km/h 76% 0.0 mm
05:18 20.9 °C 17.0 °C 1006.0 hPa Calm   3.5 km/h 76% 0.0 mm
05:23 20.9 °C 17.0 °C 1006.0 hPa ESE 5.5 km/h 5.5 km/h 76% 0.0 mm
05:28 20.9 °C 17.0 °C 1007.0 hPa Calm   5.5 km/h 77% 0.0 mm
05:33 20.9 °C 17.0 °C 1007.0 hPa ESE 6.1 km/h 6.1 km/h 77% 0.0 mm
05:38 20.9 °C 17.0 °C 1007.0 hPa East 6.1 km/h 6.1 km/h 77% 0.0 mm
05:43 20.9 °C 17.0 °C 1007.0 hPa Calm   7.9 km/h 77% 0.0 mm
05:48 20.9 °C 17.0 °C 1007.0 hPa Calm   7.9 km/h 77% 0.0 mm
05:53 20.9 °C 17.0 °C 1007.0 hPa Calm   3.5 km/h 77% 0.0 mm
05:58 20.8 °C 17.0 °C 1007.0 hPa Calm     77% 0.0 mm
06:03 20.7 °C 17.0 °C 1007.0 hPa Calm     77% 0.0 mm
06:09 20.7 °C 17.0 °C 1007.0 hPa Calm   5.5 km/h 78% 0.0 mm
06:14 20.7 °C 17.0 °C 1007.0 hPa SE 2.1 km/h 5.5 km/h 78% 0.0 mm
06:19 20.7 °C 17.0 °C 1007.0 hPa Calm   4.7 km/h 78% 0.0 mm
06:24 20.8 °C 17.0 °C 1007.0 hPa Calm   2.1 km/h 78% 0.0 mm
06:29 20.8 °C 17.0 °C 1007.0 hPa SE 2.1 km/h 2.1 km/h 77% 0.0 mm
06:34 21.0 °C 17.0 °C 1007.0 hPa Calm   2.1 km/h 77% 0.0 mm
06:39 21.1 °C 17.0 °C 1007.0 hPa Calm   2.1 km/h 77% 0.0 mm
06:44 21.1 °C 17.0 °C 1007.0 hPa Calm     77% 0.0 mm
06:49 21.3 °C 17.0 °C 1007.0 hPa Calm     77% 0.0 mm
06:54 21.3 °C 17.0 °C 1007.0 hPa SE 5.8 km/h 5.8 km/h 77% 0.0 mm
06:59 21.5 °C 17.0 °C 1006.0 hPa ESE 2.6 km/h 5.8 km/h 76% 0.0 mm
07:04 21.7 °C 17.0 °C 1006.0 hPa SE 6.1 km/h 9.3 km/h 76% 0.0 mm
07:09 21.9 °C 18.0 °C 1006.0 hPa Calm   9.3 km/h 76% 0.0 mm
07:14 22.2 °C 18.0 °C 1006.0 hPa SE 1.4 km/h 8.7 km/h 75% 0.0 mm
07:19 22.4 °C 18.0 °C 1006.0 hPa Calm   8.7 km/h 74% 0.0 mm
07:24 22.5 °C 18.0 °C 1006.0 hPa Calm   10.1 km/h 73% 0.0 mm
07:29 22.5 °C 18.0 °C 1006.0 hPa Calm   10.1 km/h 73% 0.0 mm
07:34 22.7 °C 18.0 °C 1006.0 hPa SSE 1.4 km/h 9.0 km/h 72% 0.0 mm
07:39 23.1 °C 18.0 °C 1006.0 hPa South 5.5 km/h 9.0 km/h 72% 0.0 mm
07:45 23.3 °C 18.0 °C 1006.0 hPa Calm   7.9 km/h 70% 0.0 mm
07:50 23.6 °C 18.0 °C 1006.0 hPa SE 3.2 km/h 9.7 km/h 71% 0.0 mm
07:55 23.9 °C 18.0 °C 1006.0 hPa South 4.0 km/h 11.9 km/h 70% 0.0 mm
08:00 24.2 °C 18.0 °C 1006.0 hPa SSE 6.9 km/h 13.7 km/h 68% 0.0 mm
08:05 24.4 °C 18.0 °C 1006.0 hPa SSW 10.5 km/h 13.7 km/h 67% 0.0 mm
08:10 24.5 °C 18.0 °C 1006.0 hPa South 4.0 km/h 12.2 km/h 67% 0.0 mm
08:15 24.8 °C 18.0 °C 1007.0 hPa SSW 6.9 km/h 10.5 km/h 66% 0.0 mm
08:20 25.3 °C 19.0 °C 1007.0 hPa South 4.3 km/h 10.5 km/h 66% 0.0 mm
08:25 25.1 °C 18.0 °C 1007.0 hPa SW 9.7 km/h 14.0 km/h 64% 0.0 mm
08:30 25.0 °C 18.0 °C 1007.0 hPa South 7.9 km/h 14.0 km/h 64% 0.0 mm
08:35 25.1 °C 18.0 °C 1007.0 hPa West 8.7 km/h 15.1 km/h 64% 0.0 mm
08:40 25.1 °C 18.0 °C 1007.0 hPa SSW 9.0 km/h 15.1 km/h 64% 0.0 mm
08:45 25.3 °C 18.0 °C 1007.0 hPa South 12.6 km/h 16.3 km/h 64% 0.0 mm
08:50 25.7 °C 19.0 °C 1007.0 hPa SSW 5.0 km/h 16.3 km/h 64% 0.0 mm
08:55 25.8 °C 19.0 °C 1007.0 hPa South 9.3 km/h 16.3 km/h 64% 0.0 mm
08:56 25.8 °C 19.0 °C 1007.0 hPa South 5.5 km/h 16.3 km/h 64% 0.0 mm
09:01 25.8 °C 18.0 °C 1007.0 hPa SW 5.5 km/h 15.1 km/h 63% 0.0 mm
09:06 25.6 °C 18.0 °C 1007.0 hPa South 11.1 km/h 14.3 km/h 63% 0.0 mm
09:11 25.7 °C 18.0 °C 1007.0 hPa SSW 11.9 km/h 15.8 km/h 63% 0.0 mm
09:16 26.0 °C 19.0 °C 1007.0 hPa SW 5.0 km/h 15.8 km/h 64% 0.0 mm
09:21 26.1 °C 19.0 °C 1007.0 hPa SSW 6.9 km/h 13.0 km/h 63% 0.0 mm
09:26 26.1 °C 19.0 °C 1006.0 hPa SSW 12.2 km/h 15.4 km/h 63% 0.0 mm
09:31 26.0 °C 18.0 °C 1006.0 hPa SW 14.0 km/h 15.4 km/h 62% 0.0 mm
09:36 26.0 °C 19.0 °C 1006.0 hPa SW 9.0 km/h 15.1 km/h 63% 0.0 mm
09:41 26.0 °C 19.0 °C 1007.0 hPa SSW 4.0 km/h 14.0 km/h 63% 0.0 mm
09:46 26.1 °C 19.0 °C 1007.0 hPa SSW 10.5 km/h 14.0 km/h 63% 0.0 mm
09:51 26.2 °C 19.0 °C 1007.0 hPa SSW 9.3 km/h 10.5 km/h 64% 0.0 mm
09:56 26.3 °C 19.0 °C 1007.0 hPa SW 9.7 km/h 10.1 km/h 63% 0.0 mm
10:01 26.4 °C 19.0 °C 1007.0 hPa Calm   10.1 km/h 64% 0.0 mm
10:06 26.6 °C 20.0 °C 1007.0 hPa Calm   9.7 km/h 64% 0.0 mm
10:11 26.5 °C 19.0 °C 1007.0 hPa Calm   7.6 km/h 63% 0.0 mm
10:16 26.5 °C 20.0 °C 1007.0 hPa Calm   7.6 km/h 64% 0.0 mm
10:21 26.5 °C 20.0 °C 1007.0 hPa West 5.0 km/h 10.5 km/h 64% 0.0 mm
10:26 26.4 °C 20.0 °C 1008.0 hPa SW 5.5 km/h 10.5 km/h 66% 0.0 mm
10:31 26.3 °C 20.0 °C 1008.0 hPa SSW 11.9 km/h 11.9 km/h 65% 0.0 mm
10:36 26.3 °C 20.0 °C 1008.0 hPa SSE 11.9 km/h 11.9 km/h 65% 0.0 mm
10:41 26.3 °C 19.0 °C 1007.0 hPa SSE 18.3 km/h 18.3 km/h 64% 0.0 mm
10:46 26.4 °C 20.0 °C 1007.0 hPa SSE 7.9 km/h 18.3 km/h 65% 0.0 mm
10:51 26.5 °C 20.0 °C 1007.0 hPa SSE 7.6 km/h 13.7 km/h 64% 0.0 mm
10:56 26.6 °C 20.0 °C 1007.0 hPa SE 7.9 km/h 13.7 km/h 64% 0.0 mm
11:01 26.8 °C 20.0 °C 1007.0 hPa SSE 3.2 km/h 9.7 km/h 64% 0.0 mm
11:06 27.1 °C 20.0 °C 1007.0 hPa SSW 5.5 km/h 11.9 km/h 63% 0.0 mm
11:11 28.0 °C 20.0 °C 1007.0 hPa SSE 6.9 km/h 15.1 km/h 61% 0.0 mm
11:16 28.3 °C 20.0 °C 1007.0 hPa South 8.7 km/h 15.1 km/h 60% 0.0 mm
11:22 28.8 °C 20.0 °C 1007.0 hPa South 5.8 km/h 15.8 km/h 58% 0.0 mm
11:27 29.8 °C 20.0 °C 1007.0 hPa South 9.3 km/h 15.8 km/h 57% 0.0 mm
11:32 29.7 °C 20.0 °C 1007.0 hPa SSE 10.5 km/h 16.3 km/h 54% 0.0 mm
11:37 30.4 °C 20.0 °C 1007.0 hPa South 19.8 km/h 19.8 km/h 52% 0.0 mm
11:42 30.7 °C 20.0 °C 1006.0 hPa SSE 7.9 km/h 19.8 km/h 52% 0.0 mm
11:47 30.9 °C 20.0 °C 1006.0 hPa South 8.7 km/h 16.6 km/h 50% 0.0 mm
11:52 30.7 °C 19.0 °C 1006.0 hPa SSW 6.1 km/h 16.9 km/h 49% 0.0 mm
11:57 30.8 °C 19.0 °C 1007.0 hPa SSW 11.1 km/h 16.9 km/h 48% 0.0 mm
12:02 30.6 °C 19.0 °C 1007.0 hPa SW 11.1 km/h 19.8 km/h 48% 0.0 mm
12:04 30.7 °C 19.0 °C 1007.0 hPa South 9.3 km/h 19.8 km/h 49% 0.0 mm
12:09 30.7 °C 19.0 °C 1007.0 hPa SSW 5.0 km/h 19.8 km/h 49% 0.0 mm
12:14 30.3 °C 19.0 °C 1007.0 hPa SW 10.1 km/h 17.2 km/h 50% 0.0 mm
12:19 29.8 °C 18.0 °C 1007.0 hPa SSW 9.0 km/h 17.2 km/h 50% 0.0 mm
12:24 29.7 °C 19.0 °C 1007.0 hPa SSW 14.0 km/h 20.6 km/h 52% 0.0 mm
12:29 29.9 °C 19.0 °C 1007.0 hPa SSW 9.0 km/h 20.6 km/h 53% 0.0 mm
12:34 30.6 °C 20.0 °C 1007.0 hPa South 9.0 km/h 23.3 km/h 53% 0.0 mm
12:39 31.2 °C 20.0 °C 1007.0 hPa South 12.6 km/h 23.3 km/h 51% 0.0 mm
12:44 31.5 °C 20.0 °C 1007.0 hPa South 19.1 km/h 19.1 km/h 49% 0.0 mm
12:49 31.7 °C 19.0 °C 1007.0 hPa South 21.9 km/h 30.2 km/h 46% 0.0 mm
12:54 31.9 °C 19.0 °C 1007.0 hPa SSW 20.1 km/h 30.2 km/h 46% 0.0 mm
12:59 32.4 °C 20.0 °C 1007.0 hPa South 14.3 km/h 20.1 km/h 46% 0.0 mm
13:04 32.5 °C 20.0 °C 1007.0 hPa SSW 16.6 km/h 25.6 km/h 45% 0.0 mm
13:10 32.0 °C 18.0 °C 1007.0 hPa South 25.6 km/h 26.7 km/h 43% 0.0 mm
13:15 31.8 °C 18.0 °C 1007.0 hPa WSW 17.7 km/h 26.7 km/h 43% 0.0 mm
13:20 32.1 °C 18.0 °C 1007.0 hPa SSW 20.9 km/h 28.0 km/h 42% 0.0 mm
13:25 32.0 °C 18.0 °C 1007.0 hPa WSW 16.3 km/h 28.0 km/h 42% 0.0 mm
13:30 31.6 °C 17.0 °C 1007.0 hPa SW 20.9 km/h 20.9 km/h 42% 0.0 mm
13:35 31.8 °C 18.0 °C 1007.0 hPa SW 20.9 km/h 20.9 km/h 43% 0.0 mm
13:40 31.8 °C 17.0 °C 1007.0 hPa SSE 11.9 km/h 20.9 km/h 41% 0.0 mm
13:45 32.4 °C 17.0 °C 1007.0 hPa SSW 16.9 km/h 20.9 km/h 40% 0.0 mm
13:50 32.6 °C 17.0 °C 1007.0 hPa WSW 16.3 km/h 30.6 km/h 39% 0.0 mm
13:55 32.8 °C 16.0 °C 1007.0 hPa SW 14.0 km/h 30.6 km/h 37% 0.0 mm
14:00 32.8 °C 15.0 °C 1007.0 hPa SW 19.5 km/h 26.2 km/h 35% 0.0 mm
14:05 32.1 °C 14.0 °C 1007.0 hPa SSW 30.2 km/h 30.2 km/h 34% 0.0 mm
14:10 32.0 °C 14.0 °C 1007.0 hPa SW 17.2 km/h 30.2 km/h 34% 0.0 mm
14:15 31.8 °C 14.0 °C 1007.0 hPa SW 14.0 km/h 30.2 km/h 34% 0.0 mm
14:20 31.6 °C 14.0 °C 1007.0 hPa SSE 8.7 km/h 28.5 km/h 35% 0.0 mm
14:25 31.5 °C 14.0 °C 1007.0 hPa WSW 13.0 km/h 28.5 km/h 35% 0.0 mm
14:30 31.5 °C 15.0 °C 1007.0 hPa SSW 13.7 km/h 23.8 km/h 36% 0.0 mm
14:35 32.2 °C 16.0 °C 1007.0 hPa West 12.2 km/h 23.8 km/h 36% 0.0 mm
14:40 31.9 °C 15.0 °C 1007.0 hPa SSW 8.7 km/h 21.6 km/h 36% 0.0 mm
14:45 32.5 °C 15.0 °C 1007.0 hPa SW 16.9 km/h 27.4 km/h 35% 0.0 mm
14:50 33.4 °C 16.0 °C 1007.0 hPa SSW 12.6 km/h 27.4 km/h 36% 0.0 mm
14:51 33.4 °C 16.0 °C 1007.0 hPa WSW 25.6 km/h 27.4 km/h 35% 0.0 mm
14:56 32.4 °C 16.0 °C 1007.0 hPa SSW 16.9 km/h 28.5 km/h 36% 0.0 mm
15:01 32.9 °C 17.0 °C 1007.0 hPa SSW 20.6 km/h 28.5 km/h 37% 0.0 mm
15:06 32.9 °C 17.0 °C 1007.0 hPa West 19.5 km/h 32.0 km/h 37% 0.0 mm
15:11 33.0 °C 18.0 °C 1007.0 hPa SSW 16.3 km/h 32.0 km/h 39% 0.0 mm
15:16 33.1 °C 18.0 °C 1007.0 hPa South 20.6 km/h 28.5 km/h 40% 0.0 mm
15:22 33.1 °C 18.0 °C 1007.0 hPa SW 15.1 km/h 26.2 km/h 40% 0.0 mm
15:27 33.6 °C 19.0 °C 1007.0 hPa SSW 9.3 km/h 24.5 km/h 42% 0.0 mm
15:32 33.1 °C 18.0 °C 1007.0 hPa WSW 20.9 km/h 27.0 km/h 39% 0.0 mm
15:37 33.2 °C 17.0 °C 1007.0 hPa West 24.5 km/h 27.4 km/h 38% 0.0 mm
15:42 33.5 °C 18.0 °C 1007.0 hPa SSW 10.5 km/h 27.4 km/h 40% 0.0 mm
15:47 33.1 °C 18.0 °C 1007.0 hPa SW 16.9 km/h 24.8 km/h 39% 0.0 mm
15:52 33.0 °C 18.0 °C 1007.0 hPa WSW 13.7 km/h 24.5 km/h 39% 0.0 mm
15:57 32.9 °C 18.0 °C 1007.0 hPa SSW 21.2 km/h 34.6 km/h 40% 0.0 mm
16:02 33.2 °C 18.0 °C 1007.0 hPa SW 16.9 km/h 34.6 km/h 39% 0.0 mm
16:07 32.9 °C 18.0 °C 1007.0 hPa WSW 20.1 km/h 23.3 km/h 40% 0.0 mm
16:12 33.0 °C 18.0 °C 1006.0 hPa South 19.5 km/h 23.3 km/h 40% 0.0 mm
16:17 33.2 °C 18.0 °C 1006.0 hPa SW 14.0 km/h 23.3 km/h 39% 0.0 mm
16:22 33.0 °C 17.0 °C 1006.0 hPa South 16.6 km/h 19.8 km/h 38% 0.0 mm
16:27 33.3 °C 18.0 °C 1006.0 hPa South 15.8 km/h 17.2 km/h 39% 0.0 mm
16:32 32.5 °C 17.0 °C 1006.0 hPa SSW 11.9 km/h 21.2 km/h 39% 0.0 mm
16:34 32.3 °C 17.0 °C 1006.0 hPa SW 9.0 km/h 21.2 km/h 40% 0.0 mm
16:39 31.2 °C 16.0 °C 1006.0 hPa SW 16.3 km/h 23.8 km/h 39% 0.0 mm
16:44 30.7 °C 16.0 °C 1007.0 hPa SSW 12.6 km/h 23.8 km/h 41% 0.0 mm
16:49 30.5 °C 16.0 °C 1007.0 hPa WSW 18.3 km/h 21.6 km/h 42% 0.0 mm
16:54 30.1 °C 16.0 °C 1007.0 hPa SW 17.7 km/h 21.6 km/h 43% 0.0 mm
16:59 29.9 °C 16.0 °C 1006.0 hPa South 4.0 km/h 21.6 km/h 44% 0.0 mm
17:04 29.6 °C 17.0 °C 1006.0 hPa WSW 13.7 km/h 19.8 km/h 45% 0.0 mm
17:09 29.1 °C 18.0 °C 1006.0 hPa West 13.7 km/h 19.8 km/h 51% 0.0 mm
17:14 28.7 °C 19.0 °C 1007.0 hPa West 17.2 km/h 19.1 km/h 54% 0.0 mm
17:19 28.3 °C 19.0 °C 1007.0 hPa WSW 14.3 km/h 23.3 km/h 56% 0.0 mm
17:24 27.9 °C 19.0 °C 1007.0 hPa WSW 15.8 km/h 23.8 km/h 58% 0.0 mm
17:29 27.5 °C 20.0 °C 1007.0 hPa West 11.6 km/h 23.8 km/h 60% 0.0 mm
17:34 27.1 °C 19.0 °C 1007.0 hPa SSW 10.1 km/h 21.2 km/h 61% 0.0 mm
17:35 27.0 °C 20.0 °C 1007.0 hPa West 11.6 km/h 21.2 km/h 64% 0.0 mm
17:40 26.5 °C 20.0 °C 1007.0 hPa West 9.0 km/h 16.9 km/h 66% 0.0 mm
17:45 26.0 °C 20.0 °C 1007.0 hPa Calm   15.8 km/h 67% 0.0 mm
17:50 25.7 °C 20.0 °C 1007.0 hPa Calm   10.1 km/h 69% 0.0 mm
17:55 25.5 °C 20.0 °C 1007.0 hPa Calm   4.3 km/h 71% 0.0 mm
18:00 25.3 °C 21.0 °C 1007.0 hPa Calm   4.3 km/h 75% 0.0 mm
18:05 25.2 °C 21.0 °C 1007.0 hPa Calm     76% 0.0 mm
18:10 25.3 °C 21.0 °C 1007.0 hPa Calm     78% 0.0 mm
18:16 25.5 °C 22.0 °C 1007.0 hPa Calm     77% 0.0 mm
18:21 25.7 °C 22.0 °C 1007.0 hPa Calm     78% 0.0 mm
18:26 25.9 °C 22.0 °C 1006.0 hPa Calm     79% 0.0 mm
18:31 26.0 °C 22.0 °C 1006.0 hPa Calm     79% 0.0 mm
18:36 26.0 °C 22.0 °C 1006.0 hPa Calm   2.1 km/h 78% 0.0 mm
18:37 26.1 °C 22.0 °C 1006.0 hPa Calm   2.1 km/h 78% 0.0 mm
18:42 26.0 °C 22.0 °C 1007.0 hPa Calm   2.1 km/h 77% 0.0 mm
18:47 25.8 °C 22.0 °C 1007.0 hPa West 3.2 km/h 6.4 km/h 77% 0.0 mm
18:52 25.6 °C 21.0 °C 1007.0 hPa West 5.5 km/h 7.6 km/h 76% 0.0 mm
18:58 25.4 °C 21.0 °C 1007.0 hPa WSW 7.6 km/h 7.9 km/h 74% 0.0 mm
19:03 25.2 °C 20.0 °C 1007.0 hPa NW 5.0 km/h 13.0 km/h 72% 0.0 mm
19:08 25.1 °C 20.0 °C 1007.0 hPa WNW 6.4 km/h 13.0 km/h 72% 0.0 mm
19:13 25.0 °C 19.0 °C 1007.0 hPa West 6.1 km/h 13.0 km/h 70% 0.0 mm
19:18 24.9 °C 19.0 °C 1007.0 hPa NNW 5.5 km/h 16.9 km/h 70% 0.0 mm
19:23 24.8 °C 19.0 °C 1007.0 hPa West 9.0 km/h 21.2 km/h 70% 0.0 mm
19:28 24.7 °C 19.0 °C 1006.0 hPa WNW 7.9 km/h 21.2 km/h 69% 0.0 mm
19:33 24.6 °C 19.0 °C 1006.0 hPa West 16.9 km/h 16.9 km/h 69% 0.0 mm
19:38 24.5 °C 19.0 °C 1006.0 hPa West 18.3 km/h 21.9 km/h 69% 0.0 mm
19:43 24.4 °C 18.0 °C 1007.0 hPa West 11.6 km/h 21.9 km/h 68% 0.3 mm
19:48 24.3 °C 18.0 °C 1007.0 hPa West 15.8 km/h 20.6 km/h 67% 0.3 mm
19:53 24.2 °C 18.0 °C 1007.0 hPa WSW 11.6 km/h 17.2 km/h 68% 0.3 mm
19:58 24.1 °C 18.0 °C 1007.0 hPa WSW 12.6 km/h 17.2 km/h 68% 0.3 mm
20:03 24.1 °C 18.0 °C 1007.0 hPa West 13.0 km/h 17.2 km/h 68% 0.3 mm
20:08 24.0 °C 18.0 °C 1007.0 hPa NW 8.7 km/h 16.3 km/h 68% 0.3 mm
20:13 23.8 °C 18.0 °C 1007.0 hPa West 13.7 km/h 20.9 km/h 68% 0.3 mm
20:18 23.6 °C 18.0 °C 1007.0 hPa West 17.2 km/h 20.9 km/h 68% 0.3 mm
20:23 23.5 °C 18.0 °C 1007.0 hPa WSW 11.1 km/h 20.6 km/h 68% 0.3 mm
20:28 23.5 °C 18.0 °C 1007.0 hPa WSW 11.1 km/h 19.5 km/h 69% 0.3 mm
20:33 23.4 °C 17.0 °C 1007.0 hPa WSW 8.7 km/h 14.0 km/h 69% 0.3 mm
20:36 23.4 °C 17.0 °C 1007.0 hPa West 7.6 km/h 16.6 km/h 69% 0.3 mm
20:41 23.3 °C 17.0 °C 1007.0 hPa NW 7.9 km/h 16.6 km/h 69% 0.3 mm
20:46 23.2 °C 18.0 °C 1007.0 hPa West 8.7 km/h 14.0 km/h 70% 0.0 mm
20:51 23.1 °C 17.0 °C 1007.0 hPa West 6.9 km/h 14.0 km/h 70% 0.0 mm
20:56 23.1 °C 17.0 °C 1008.0 hPa West 7.9 km/h 13.7 km/h 70% 0.0 mm
21:01 23.0 °C 17.0 °C 1008.0 hPa West 3.5 km/h 13.7 km/h 70% 0.0 mm
21:06 23.0 °C 17.0 °C 1008.0 hPa West 1.8 km/h 9.7 km/h 70% 0.0 mm
21:11 22.9 °C 18.0 °C 1007.0 hPa West 7.9 km/h 8.7 km/h 71% 0.0 mm
21:16 22.8 °C 17.0 °C 1007.0 hPa West 4.7 km/h 8.7 km/h 71% 0.0 mm
21:22 22.6 °C 18.0 °C 1007.0 hPa West 3.5 km/h 7.9 km/h 72% 0.0 mm
21:27 22.5 °C 18.0 °C 1008.0 hPa Calm   6.9 km/h 73% 0.0 mm
21:32 22.4 °C 17.0 °C 1008.0 hPa Calm   3.5 km/h 73% 0.0 mm
21:37 22.2 °C 18.0 °C 1008.0 hPa Calm     74% 0.0 mm
21:42 22.0 °C 17.0 °C 1008.0 hPa Calm     74% 0.0 mm
21:47 21.8 °C 17.0 °C 1008.0 hPa Calm     76% 0.0 mm
21:52 21.6 °C 17.0 °C 1008.0 hPa Calm     76% 0.0 mm
21:57 21.4 °C 17.0 °C 1008.0 hPa Calm     77% 0.0 mm
22:02 21.3 °C 17.0 °C 1008.0 hPa Calm     78% 0.0 mm
22:07 21.1 °C 17.0 °C 1008.0 hPa Calm     78% 0.0 mm
22:12 20.9 °C 17.0 °C 1008.0 hPa Calm     79% 0.0 mm
22:17 20.7 °C 17.0 °C 1008.0 hPa Calm     80% 0.0 mm
22:22 20.5 °C 17.0 °C 1008.0 hPa Calm     80% 0.0 mm
22:27 20.3 °C 17.0 °C 1007.0 hPa Calm     80% 0.0 mm
22:32 20.1 °C 17.0 °C 1007.0 hPa Calm     81% 0.0 mm
22:37 20.0 °C 17.0 °C 1007.0 hPa Calm     82% 0.0 mm
22:42 19.9 °C 17.0 °C 1008.0 hPa Calm     83% 0.0 mm
22:47 19.8 °C 17.0 °C 1008.0 hPa Calm     83% 0.0 mm
22:52 19.7 °C 17.0 °C 1008.0 hPa Calm     84% 0.0 mm
22:57 19.6 °C 17.0 °C 1008.0 hPa Calm     84% 0.0 mm
23:02 19.6 °C 17.0 °C 1008.0 hPa Calm     85% 0.0 mm
23:07 19.5 °C 17.0 °C 1008.0 hPa Calm     85% 0.0 mm
23:12 19.5 °C 17.0 °C 1008.0 hPa Calm     86% 0.0 mm
23:17 19.5 °C 17.0 °C 1008.0 hPa Calm     86% 0.0 mm
23:22 19.5 °C 17.0 °C 1008.0 hPa Calm     86% 0.0 mm
23:27 19.5 °C 18.0 °C 1008.0 hPa Calm     87% 0.0 mm
23:32 19.5 °C 18.0 °C 1008.0 hPa Calm     87% 0.0 mm
23:38 19.4 °C 17.0 °C 1008.0 hPa Calm     88% 0.0 mm
23:39 19.4 °C 17.0 °C 1008.0 hPa Calm     88% 0.0 mm
23:44 19.4 °C 17.0 °C 1007.0 hPa Calm     88% 0.0 mm
23:49 19.3 °C 17.0 °C 1007.0 hPa Calm     88% 0.0 mm
23:54 19.2 °C 17.0 °C 1007.0 hPa Calm     88% 0.0 mm
23:59 19.2 °C 17.0 °C 1008.0 hPa Calm     88% 0.0 mm
Données Historique de Météo Turbie

Mise a jour : 23/06/2018 07:54:11
Généré par Cumulus 1.9.4 (1099)